When you browse on this site, cookies collect data to enhance your experience and personalize the content and advertising you see.
Visit our Privacy Policy to learn more. By continuing to use the site, you agree to this use of cookies and data.
EN

Hourly Weather Pyharivka

Today, 14 July, Tuesday

Time Temperature Precipitation Wind Pressure Humidity
00:00 +14°C° 0 mm 5 mps 741 mmHg 86%
01:00 +14°C° 0 mm 5 mps 740 mmHg 86%
02:00 +13°C° 0 mm 4 mps 741 mmHg 82%
03:00 +13°C° 0 mm 4 mps 740 mmHg 83%
04:00 +13°C° 0 mm 5 mps 740 mmHg 85%
05:00 +13°C° 0 mm 5 mps 740 mmHg 87%
06:00 +13°C° 0.2 mm 5 mps 740 mmHg 89%
07:00 +13°C° 0.2 mm 5 mps 740 mmHg 90%
08:00 +13°C° 0 mm 5 mps 740 mmHg 93%
09:00 +14°C° 0.6 mm 5 mps 739 mmHg 93%
10:00 +14°C° 0.6 mm 5 mps 739 mmHg 94%
11:00 +14°C° 0.6 mm 5 mps 739 mmHg 94%
12:00 +14°C° 0.9 mm 6 mps 739 mmHg 94%
13:00 +14°C° 0.9 mm 6 mps 739 mmHg 94%
14:00 +15°C° 0.9 mm 6 mps 738 mmHg 95%
15:00 +14°C° 0.3 mm 6 mps 738 mmHg 94%
16:00 +14°C° 0.3 mm 6 mps 738 mmHg 94%
17:00 +14°C° 0.3 mm 6 mps 737 mmHg 94%
18:00 +14°C° 0.8 mm 6 mps 737 mmHg 95%
19:00 +14°C° 0.8 mm 6 mps 737 mmHg 95%
20:00 +14°C° 0.8 mm 6 mps 737 mmHg 95%
21:00 +14°C° 1.9 mm 6 mps 737 mmHg 95%
22:00 +14°C° 1.9 mm 7 mps 737 mmHg 95%
23:00 +12°C° 1.9 mm 7 mps 736 mmHg 95%

Tomorrow, 15 July, Wednesday

Time Temperature Precipitation Wind Pressure Humidity
00:00 +12°C° 1.4 mm 8 mps 736 mmHg 95%
01:00 +12°C° 1.4 mm 8 mps 736 mmHg 94%
02:00 +12°C° 1.4 mm 9 mps 736 mmHg 94%
03:00 +11°C° 1 mm 9 mps 736 mmHg 94%
04:00 +11°C° 1 mm 8 mps 736 mmHg 93%
05:00 +10°C° 1 mm 8 mps 736 mmHg 93%
06:00 +10°C° 0.7 mm 8 mps 736 mmHg 93%
07:00 +10°C° 0.7 mm 9 mps 736 mmHg 93%
08:00 +10°C° 0.7 mm 9 mps 736 mmHg 93%
09:00 +10°C° 0.9 mm 9 mps 736 mmHg 92%
10:00 +10°C° 0.9 mm 9 mps 737 mmHg 92%
11:00 +10°C° 0.9 mm 9 mps 737 mmHg 91%
12:00 +10°C° 0.5 mm 9 mps 738 mmHg 91%
13:00 +10°C° 0.5 mm 9 mps 738 mmHg 91%
14:00 +9°C° 0.5 mm 8 mps 739 mmHg 91%
15:00 +9°C° 0.3 mm 8 mps 739 mmHg 92%
16:00 +9°C° 0.3 mm 8 mps 739 mmHg 92%
17:00 +9°C° 0.3 mm 8 mps 740 mmHg 92%
18:00 +10°C° 0 mm 7 mps 740 mmHg 92%
19:00 +10°C° 0 mm 7 mps 741 mmHg 93%
20:00 +10°C° 0 mm 6 mps 741 mmHg 93%
21:00 +10°C° 0 mm 6 mps 741 mmHg 92%
22:00 +10°C° 0 mm 5 mps 741 mmHg 92%
23:00 +10°C° 0 mm 5 mps 741 mmHg 91%

Day after tomorrow, 16 July, Thursday

Time Temperature Precipitation Wind Pressure Humidity
00:00 +10°C° 0 mm 5 mps 742 mmHg 89%
01:00 +10°C° 0 mm 5 mps 742 mmHg 87%
02:00 +10°C° 0 mm 5 mps 742 mmHg 86%
03:00 +10°C° 0 mm 5 mps 742 mmHg 84%
04:00 +12°C° 0 mm 5 mps 742 mmHg 82%
05:00 +12°C° 0 mm 4 mps 742 mmHg 81%
06:00 +13°C° 0 mm 5 mps 742 mmHg 80%
07:00 +14°C° 0 mm 5 mps 742 mmHg 79%
08:00 +15°C° 0 mm 5 mps 742 mmHg 78%
09:00 +17°C° 0 mm 5 mps 742 mmHg 73%
10:00 +19°C° 0 mm 5 mps 742 mmHg 69%
11:00 +20°C° 0 mm 5 mps 742 mmHg 65%
12:00 +20°C° 0.1 mm 5 mps 742 mmHg 65%
13:00 +21°C° 0.1 mm 5 mps 742 mmHg 66%
14:00 +21°C° 0.1 mm 5 mps 742 mmHg 66%
15:00 +21°C° 0.1 mm 5 mps 742 mmHg 68%
16:00 +21°C° 0.1 mm 4 mps 742 mmHg 71%
17:00 +21°C° 0.1 mm 3 mps 742 mmHg 73%
18:00 +19°C° 0 mm 3 mps 742 mmHg 78%
19:00 +18°C° 0 mm 2 mps 742 mmHg 83%
20:00 +16°C° 0 mm 1 mps 742 mmHg 88%
21:00 +15°C° 0 mm 1 mps 742 mmHg 88%
22:00 +15°C° 0 mm 1 mps 743 mmHg 89%
23:00 +14°C° 0 mm 1 mps 743 mmHg 90%

17 July, Friday

Time Temperature Precipitation Wind Pressure Humidity
00:00 +14°C° 0 mm 1 mps 743 mmHg 90%
01:00 +14°C° 0 mm 1 mps 743 mmHg 90%
02:00 +13°C° 0 mm 1 mps 743 mmHg 90%
03:00 +13°C° 0 mm 1 mps 743 mmHg 90%
04:00 +13°C° 0 mm 1 mps 743 mmHg 89%
05:00 +14°C° 0 mm 1 mps 743 mmHg 89%
06:00 +15°C° 0 mm 1 mps 743 mmHg 83%
07:00 +18°C° 0 mm 1 mps 743 mmHg 77%
08:00 +20°C° 0 mm 1 mps 744 mmHg 72%
09:00 +22°C° 0 mm 1 mps 744 mmHg 67%
10:00 +23°C° 0 mm 1 mps 744 mmHg 62%
11:00 +24°C° 0 mm 1 mps 744 mmHg 57%
12:00 +25°C° 0 mm 1 mps 744 mmHg 55%
13:00 +25°C° 0 mm 1 mps 744 mmHg 54%
14:00 +26°C° 0 mm 2 mps 744 mmHg 53%
15:00 +25°C° 0.1 mm 2 mps 744 mmHg 56%
16:00 +25°C° 0.1 mm 1 mps 744 mmHg 59%
17:00 +25°C° 0.1 mm 1 mps 744 mmHg 62%
18:00 +23°C° 0.1 mm 1 mps 744 mmHg 69%
19:00 +21°C° 0.1 mm 1 mps 744 mmHg 76%
20:00 +19°C° 0.1 mm 1 mps 744 mmHg 84%
21:00 +19°C° 0 mm 1 mps 744 mmHg 84%
22:00 +18°C° 0 mm 1 mps 744 mmHg 85%
23:00 +16°C° 0 mm 0 mps 745 mmHg 86%

18 July, Saturday

Time Temperature Precipitation Wind Pressure Humidity
00:00 +18°C° 0 mm 1 mps 745 mmHg 87%
01:00 +16°C° 0 mm 1 mps 745 mmHg 89%
02:00 +16°C° 0 mm 1 mps 745 mmHg 90%
03:00 +16°C° 0 mm 1 mps 745 mmHg 90%
04:00 +16°C° 0 mm 1 mps 745 mmHg 90%
05:00 +18°C° 0 mm 1 mps 745 mmHg 90%
06:00 +19°C° 0 mm 1 mps 746 mmHg 86%
07:00 +21°C° 0 mm 1 mps 746 mmHg 81%
08:00 +23°C° 0 mm 1 mps 746 mmHg 76%
09:00 +24°C° 0.9 mm 2 mps 746 mmHg 74%
10:00 +24°C° 0.9 mm 2 mps 746 mmHg 72%
11:00 +25°C° 0.9 mm 2 mps 746 mmHg 69%
12:00 +26°C° 1.5 mm 2 mps 746 mmHg 69%
13:00 +26°C° 1.5 mm 2 mps 746 mmHg 68%
14:00 +26°C° 1.5 mm 2 mps 746 mmHg 67%
15:00 +26°C° 1.1 mm 1 mps 746 mmHg 68%
16:00 +26°C° 1.1 mm 1 mps 746 mmHg 68%
17:00 +26°C° 1.1 mm 1 mps 746 mmHg 69%
18:00 +24°C° 0.4 mm 1 mps 746 mmHg 74%
19:00 +23°C° 0.4 mm 1 mps 746 mmHg 79%
20:00 +21°C° 0.4 mm 1 mps 746 mmHg 83%
21:00 +21°C° 0.3 mm 1 mps 746 mmHg 84%
22:00 +18°C° 0.3 mm 0 mps 746 mmHg 85%
23:00 +17°C° 0.3 mm 0 mps 746 mmHg 86%

19 July, Sunday

Time Temperature Precipitation Wind Pressure Humidity
00:00 +17°C° 0 mm 0 mps 746 mmHg 87%
01:00 +17°C° 0 mm 0 mps 746 mmHg 88%
02:00 +16°C° 0 mm 0 mps 746 mmHg 89%
03:00 +16°C° 0 mm 0 mps 746 mmHg 89%
04:00 +17°C° 0 mm 0 mps 746 mmHg 89%
05:00 +17°C° 0 mm 0 mps 746 mmHg 89%
06:00 +18°C° 0 mm 0 mps 746 mmHg 85%
07:00 +20°C° 0 mm 0 mps 746 mmHg 81%
08:00 +21°C° 0 mm 0 mps 746 mmHg 77%
09:00 +24°C° 1 mm 1 mps 746 mmHg 74%
10:00 +25°C° 1 mm 1 mps 746 mmHg 70%
11:00 +26°C° 1 mm 1 mps 746 mmHg 67%
12:00 +26°C° 1.4 mm 1 mps 745 mmHg 67%
13:00 +26°C° 1.4 mm 2 mps 745 mmHg 68%
14:00 +26°C° 1.4 mm 2 mps 745 mmHg 69%
15:00 +26°C° 0.9 mm 2 mps 745 mmHg 72%
16:00 +25°C° 0.9 mm 2 mps 744 mmHg 76%
17:00 +25°C° 0.9 mm 3 mps 744 mmHg 80%
18:00 +22°C° 0.3 mm 3 mps 744 mmHg 83%
19:00 +21°C° 0.3 mm 3 mps 744 mmHg 87%
20:00 +20°C° 0.3 mm 3 mps 744 mmHg 90%
21:00 +19°C° 0 mm 3 mps 744 mmHg 90%
22:00 +18°C° 0 mm 3 mps 743 mmHg 91%
23:00 +17°C° 0 mm 3 mps 743 mmHg 91%
Show more